CHINASAT 9B

Last updated on Mon Oct 14 2024 00:02:41 GMT+0000 (Coordinated Universal Time)

1 49125U 21080A 24287.57336017 -.00000315 00000+0 00000+0 0 9995 2 49125 0.0202 251.6073 0003581 316.2220 122.6278 1.00273002 11515
UTC large
Height (km)
Speed (km/s)
/
Latitude / Longitude
Inclination (degrees)
Orbital Period (minutes)
Azimuth
Elevation
Range (km)
Doppler Factor

Next 0 passes for location: London (51.5072 / 0.1276)

Sorry there are no passes over London.